Stations météo

réclame
Mon MeteoGroup
Torpshammar, Suède (2343): Température de l'air & dewpoint: 12.02.2019 02:00:00 - 18.02.2019 02:00:00 (CET)Torpshammar, Suède (2343): Vitesse du vent & gusts: 12.02.2019 02:00:00 - 18.02.2019 02:00:00 (CET)Torpshammar, Suède (2343): Direction du vent: 12.02.2019 02:00:00 - 18.02.2019 02:00:00 (CET)Torpshammar, Suède (2343): reduced air pressure: 12.02.2019 02:00:00 - 18.02.2019 02:00:00 (CET)Torpshammar, Suède (2343): visibility: 12.02.2019 02:00:00 - 18.02.2019 02:00:00 (CET)Torpshammar, Suède (2343): Quantités de précipitations: 12.02.2019 02:00:00 - 18.02.2019 02:00:00 (CET)
Date & Time tt [°C] td [°C] ff [km/h] ff [knt] fx [km/h] fx [knt] dd ppp [hPa] vv [km] rr [mm]
18.02.2019 02:00:00 - - - - - - - - - -
18.02.2019 01:00:00 1,2 -4,7 5 3 14 8 E 1013,5 50 0,0
18.02.2019 00:00:00 1,0 -4,2 4 2 13 7 E 1014,7 50 0,0
17.02.2019 23:00:00 0,9 -4,0 4 2 13 7 E 1015,7 50 0,0
17.02.2019 22:00:00 0,9 -3,4 3 2 13 7 E 1016,7 50 0,0
17.02.2019 21:00:00 1,1 -3,8 5 3 20 11 S 1017,6 50 0,0
17.02.2019 20:00:00 0,4 -5,4 0 0 14 8 N 1018,1 50 0,0
17.02.2019 19:00:00 0,5 -5,3 3 1 9 5 E 1018,2 50 0,0
17.02.2019 18:00:00 -0,2 -5,2 2 1 10 6 NE 1018,3 50 0,0
17.02.2019 17:00:00 -2,1 -4,9 0 0 4 2 N 1018,9 50 0,0
17.02.2019 16:00:00 -0,3 -5,1 0 0 5 3 N 1018,9 50 0,0
17.02.2019 15:00:00 2,8 -5,1 2 1 7 4 E 1018,7 50 0,0
17.02.2019 14:00:00 3,4 -5,3 2 1 5 3 S 1018,9 43 0,0
17.02.2019 13:00:00 3,0 -4,9 4 2 14 8 W 1018,8 37 0,0
17.02.2019 12:00:00 1,6 -5,1 5 3 12 6 W 1018,7 42 0,0
17.02.2019 11:00:00 0,7 -5,1 4 2 6 3 W 1018,5 38 0,0
17.02.2019 10:00:00 -0,9 -5,7 2 1 9 5 WSW 1018,3 49 0,0
17.02.2019 09:00:00 -2,9 -6,0 5 3 10 5 NW 1017,8 48 0,0
17.02.2019 08:00:00 -4,7 -6,8 2 1 6 3 NNE 1017,5 50 0,0
17.02.2019 07:00:00 -3,9 -6,8 2 1 9 5 ENE 1016,8 50 0,0
17.02.2019 06:00:00 - - - - 16 9 - - - -
17.02.2019 05:00:00 -4,0 -6,5 4 2 12 7 NW 1015,8 50 0,0
17.02.2019 04:00:00 -1,4 -6,2 3 2 22 12 WNW 1015,1 50 0,0
17.02.2019 03:00:00 -0,2 -6,0 9 5 24 13 WNW 1014,3 50 0,0
17.02.2019 02:00:00 0,5 -5,7 10 5 31 17 WNW 1013,4 50 0,0
17.02.2019 01:00:00 0,9 -5,6 17 9 27 14 W 1012,1 50 0,0
17.02.2019 00:00:00 1,4 -5,1 14 8 37 20 NW 1011,4 50 0,0
16.02.2019 23:00:00 1,9 -4,8 19 10 35 19 WNW 1010,3 50 0,0
16.02.2019 22:00:00 1,8 -5,8 13 7 34 18 WNW 1009,7 50 0,0
16.02.2019 21:00:00 1,8 -5,8 12 6 30 16 WNW 1008,7 50 0,0
16.02.2019 20:00:00 2,7 -5,2 16 8 31 17 WNW 1008,4 50 0,0
16.02.2019 19:00:00 2,7 -3,6 10 6 26 14 W 1007,5 50 0,0
16.02.2019 18:00:00 3,7 -3,6 20 11 39 21 WNW 1007,0 50 0,0
16.02.2019 17:00:00 3,7 -2,7 13 7 41 22 WNW 1006,2 50 0,0
16.02.2019 16:00:00 4,9 -2,7 16 9 31 17 NW 1005,2 50 0,0
16.02.2019 15:00:00 5,5 -1,7 9 5 21 12 NW 1004,3 50 0,0
16.02.2019 14:00:00 5,6 -1,6 10 5 29 15 WNW 1004,2 50 0,0
16.02.2019 13:00:00 6,0 -1,9 10 6 24 13 WNW 1003,6 50 0,0
16.02.2019 12:00:00 5,4 -2,7 9 5 19 10 W 1003,4 50 0,0
16.02.2019 11:00:00 0,7 -1,2 5 3 9 5 NW 1003,6 50 0,0
16.02.2019 10:00:00 -2,0 -2,4 0 0 4 2 N 1003,5 50 0,0
16.02.2019 09:00:00 -3,4 -3,8 0 0 4 2 N 1003,7 50 0,0
16.02.2019 08:00:00 -4,6 -4,9 2 1 6 4 NE 1003,3 50 0,0
16.02.2019 07:00:00 -5,9 -6,6 3 2 7 4 SSE 1003,3 48 0,0
16.02.2019 06:00:00 -5,7 -6,1 2 1 5 3 ENE 1003,0 50 0,0
16.02.2019 05:00:00 -5,8 -6,2 0 0 6 3 N 1003,0 50 0,0
16.02.2019 04:00:00 -5,9 -6,3 0 0 3 2 N 1003,8 50 0,0
16.02.2019 03:00:00 -5,5 -5,9 0 0 4 2 N 1004,6 50 0,0
16.02.2019 02:00:00 -5,0 -5,4 0 0 3 2 N 1005,4 50 0,0
16.02.2019 01:00:00 -4,4 -4,7 0 0 5 3 N 1006,4 50 0,0
16.02.2019 00:00:00 -3,7 -4,1 0 0 5 3 N 1007,2 50 0,0
15.02.2019 23:00:00 -2,7 -3,0 0 0 4 2 N 1008,3 50 0,0
15.02.2019 22:00:00 -2,0 -2,4 3 2 8 5 ESE 1009,5 50 0,0
15.02.2019 21:00:00 -1,2 -1,8 3 2 10 5 NNE 1010,4 50 0,0
15.02.2019 20:00:00 -0,3 -1,3 0 0 6 3 N 1011,0 50 0,0
15.02.2019 19:00:00 0,6 -0,5 0 0 7 4 N 1012,0 50 0,0
15.02.2019 18:00:00 0,9 -0,6 0 0 3 2 N 1012,6 50 0,0
15.02.2019 17:00:00 1,8 -0,1 3 1 4 2 NNE 1013,2 50 0,0
15.02.2019 16:00:00 2,7 -0,1 0 0 4 2 N 1013,7 50 0,0
15.02.2019 15:00:00 6,1 0,2 0 0 10 6 N 1013,8 50 0,0
15.02.2019 14:00:00 9,2 0,9 5 3 11 6 W 1014,1 50 0,0
15.02.2019 13:00:00 8,3 0,8 6 3 18 10 WNW 1014,4 50 0,0
15.02.2019 12:00:00 8,7 0,7 10 5 25 13 WNW 1014,7 50 0,0
15.02.2019 11:00:00 7,9 0,4 8 4 13 7 NNW 1014,5 50 0,0
15.02.2019 10:00:00 6,6 -0,4 8 4 18 10 NW 1014,8 50 0,0
15.02.2019 09:00:00 2,9 -1,1 4 2 7 4 WNW 1015,0 50 0,0
15.02.2019 08:00:00 3,5 -1,5 4 2 13 7 W 1014,7 50 0,0
15.02.2019 07:00:00 2,0 -1,3 4 2 8 4 WNW 1014,7 50 0,0
15.02.2019 06:00:00 1,4 -1,7 2 1 5 3 N 1015,2 50 0,0
15.02.2019 05:00:00 2,4 -2,7 3 2 15 8 NNW 1015,2 50 0,0
15.02.2019 04:00:00 5,5 -2,3 9 5 21 12 WNW 1015,2 50 0,0
15.02.2019 03:00:00 6,3 -2,3 10 6 21 12 W 1015,4 50 0,0
15.02.2019 02:00:00 6,3 -2,3 10 6 26 14 W 1015,2 50 0,0
15.02.2019 01:00:00 6,2 -1,9 10 6 21 11 W 1014,8 50 0,0
15.02.2019 00:00:00 5,8 -2,1 7 4 19 10 WNW 1014,4 50 0,0
14.02.2019 23:00:00 7,1 -1,6 11 6 28 15 WNW 1014,1 42 0,0
14.02.2019 22:00:00 5,8 -1,8 6 3 17 9 NW 1013,8 43 0,0
14.02.2019 21:00:00 2,5 -1,1 0 0 12 6 N 1013,6 50 0,0
14.02.2019 20:00:00 1,0 -2,1 4 2 11 6 NNW 1013,1 50 0,0
14.02.2019 19:00:00 -0,6 -1,2 2 1 6 3 NNE 1012,5 50 0,0
14.02.2019 18:00:00 -0,9 -1,5 3 1 6 3 NNE 1012,0 50 0,0
14.02.2019 17:00:00 0,2 -1,1 0 0 5 3 N 1011,3 50 0,0
14.02.2019 16:00:00 4,8 0,4 4 2 17 9 WNW 1010,9 50 0,0
14.02.2019 15:00:00 1,7 -0,6 4 2 5 3 NW 1010,9 50 0,0
14.02.2019 14:00:00 2,7 -0,1 0 0 5 3 N 1010,0 46 0,0
14.02.2019 13:00:00 2,4 -0,7 2 1 16 9 W 1009,8 38 0,0
14.02.2019 12:00:00 0,5 -1,1 3 2 7 4 SSE 1010,8 24 0,0
14.02.2019 11:00:00 -0,6 -1,9 2 1 9 5 NE 1011,7 21 0,0
14.02.2019 10:00:00 -1,3 -2,1 0 0 5 3 N 1012,4 25 0,0
14.02.2019 09:00:00 -2,0 -2,4 0 0 4 2 N 1014,2 16 0,0
14.02.2019 08:00:00 -2,2 -2,5 0 0 3 2 N 1014,8 19 0,0
14.02.2019 07:00:00 -1,8 -2,1 0 0 3 2 N 1014,7 14 0,0
14.02.2019 06:00:00 -0,9 -1,6 0 0 5 3 N 1014,8 14 0,0
14.02.2019 05:00:00 0,0 -0,8 0 0 6 4 N 1015,7 15 0,0
14.02.2019 04:00:00 0,2 -1,2 3 1 10 5 W 1016,6 17 0,0
14.02.2019 03:00:00 0,2 -1,2 4 2 9 5 E 1016,6 16 0,0
14.02.2019 02:00:00 -0,6 -1,3 3 1 6 3 SE 1017,9 13 0,0
14.02.2019 01:00:00 -1,7 -2,4 0 0 5 3 N 1018,1 12 0,0
14.02.2019 00:00:00 -1,5 -2,3 3 1 9 5 SE 1017,6 13 0,0
13.02.2019 23:00:00 -0,9 -2,2 0 0 7 4 N 1016,7 13 0,0
13.02.2019 22:00:00 3,2 -1,0 7 4 22 12 WNW 1015,8 16 0,0
13.02.2019 21:00:00 4,2 -0,8 12 7 23 13 WNW 1014,5 19 0,0
13.02.2019 20:00:00 4,7 -0,9 11 6 37 20 WNW 1013,7 37 0,0
13.02.2019 19:00:00 5,0 -0,4 20 11 40 22 WNW 1012,4 45 0,0
13.02.2019 18:00:00 - - - - 48 26 - - - -
13.02.2019 17:00:00 5,3 -1,0 22 12 60 32 WNW 1009,8 50 0,0
13.02.2019 16:00:00 6,1 -0,9 22 12 49 26 WNW 1008,4 50 0,0
13.02.2019 15:00:00 6,9 -0,3 22 12 46 25 WNW 1007,4 50 0,0
13.02.2019 14:00:00 7,0 0,9 12 7 32 18 W 1006,3 50 0,0
13.02.2019 13:00:00 5,6 0,2 6 3 16 8 WNW 1005,9 50 0,0
13.02.2019 12:00:00 1,7 -1,7 4 2 10 5 W 1006,1 50 0,0
13.02.2019 11:00:00 -3,1 -4,1 2 1 6 4 SW 1006,0 50 0,0
13.02.2019 10:00:00 -5,6 -6,3 0 0 3 2 N 1005,5 50 0,0
13.02.2019 09:00:00 -5,2 -5,7 2 1 5 3 NNE 1004,5 50 0,0
13.02.2019 08:00:00 -6,5 -7,2 0 0 5 3 N 1003,8 50 0,0
13.02.2019 07:00:00 -6,4 -7,2 2 1 8 5 NNW 1003,1 50 0,0
13.02.2019 06:00:00 -4,4 -4,8 5 3 14 8 NW 1002,4 50 0,0
13.02.2019 05:00:00 -5,5 -5,9 0 0 4 2 N 1002,1 50 0,0
13.02.2019 04:00:00 -4,6 -5,4 0 0 3 2 N 1001,7 50 0,0
13.02.2019 03:00:00 -4,3 -5,0 0 0 4 2 N 1001,8 50 0,0
13.02.2019 02:00:00 -4,1 -4,8 2 1 5 3 E 1001,9 50 0,1
13.02.2019 01:00:00 -4,4 -4,9 3 2 7 4 SE 1003,6 50 0,0
13.02.2019 00:00:00 -4,6 -5,3 2 1 6 3 SE 1004,7 46 0,0
12.02.2019 23:00:00 -4,4 -5,2 0 0 4 2 N 1006,3 50 0,0
12.02.2019 22:00:00 -5,0 -5,8 0 0 4 2 N 1007,4 50 0,0
12.02.2019 21:00:00 -4,7 -5,3 0 0 4 2 N 1008,5 50 0,0
12.02.2019 20:00:00 -4,8 -5,5 0 0 9 5 N 1009,8 50 0,0
12.02.2019 19:00:00 -4,4 -5,2 2 1 5 3 E 1010,8 50 0,0
12.02.2019 18:00:00 -4,0 -5,3 0 0 7 4 N 1011,7 50 0,0
12.02.2019 17:00:00 -2,4 -5,7 2 1 14 8 NW 1012,3 50 0,0
12.02.2019 16:00:00 -1,2 -5,4 10 5 16 8 W 1012,5 50 0,0
12.02.2019 15:00:00 -0,4 -5,6 6 4 21 11 WNW 1013,1 50 0,0
12.02.2019 14:00:00 0,1 -5,5 10 5 18 10 W 1013,1 50 0,0
12.02.2019 13:00:00 0,2 -4,7 7 4 22 12 W 1013,2 50 0,0
12.02.2019 12:00:00 -0,7 -4,8 9 5 16 9 WNW 1013,1 50 0,0
12.02.2019 11:00:00 -1,6 -5,1 9 5 17 9 NW 1013,3 50 0,0
12.02.2019 10:00:00 -3,7 -5,9 7 4 13 7 WNW 1013,0 50 0,0
12.02.2019 09:00:00 -11,8 -12,8 6 3 8 5 WNW 1013,0 50 0,0
12.02.2019 08:00:00 -9,9 -10,7 0 0 11 6 N 1012,4 50 0,0
12.02.2019 07:00:00 -10,4 -11,3 0 0 8 4 N 1011,8 50 0,0
12.02.2019 06:00:00 -8,0 -9,2 3 2 12 6 NNW 1011,3 50 0,0
12.02.2019 05:00:00 -9,4 -10,5 5 3 10 5 NNW 1010,9 50 0,0
12.02.2019 04:00:00 -10,1 -11,0 0 0 14 7 N 1010,7 50 0,0
12.02.2019 03:00:00 -9,2 -9,5 5 3 11 6 NW 1010,3 50 0,0
12.02.2019 02:00:00 -9,8 -10,9 4 2 11 6 NNW 1009,9 50 0,0

tt = Température de l'air
td = dewpoint
ff = Vitesse du vent
fx = gusts
dd = Direction du vent
ppp = reduced air pressure
vv = visibility
rr = Quantités de précipitations

stations d'obs. à proximité